Flag for India Weather past 2 weeks in Jaipur, Rajasthan, India

Now
90 °F

Scattered clouds.


Feels Like: 96 °F
Forecast: 81 / 96 °F
Wind: 14 mph from West

Location: Jaipur / Sanganer

Current Time: Jul 6, 2015 at 1:05:02 PM

Latest Report: Jul 6, 2015 at 11:00 AM


Visibility: 2 mi

Pressure: 29.56 "Hg

Humidity: 55%

Dew point: 72 °F

Location of JaipurLocation

Historic Weather in Jaipur — Graph

°F

Jaipur temperature yesterday

Maximum temperature yesterday: 99 °F (at 4:00 PM)
Minimum temperature yesterday: 84 °F (at 6:00 AM)
Average temperature yesterday: 91 °F

Past Weeks' High & Low Weather Summary

 TemperatureHumidityPressure
High102 °F (Jun 21, 3:00 PM)100% (Jun 25, 3:00 AM)29.77 "Hg (Jun 25, 3:00 AM)
Low75 °F (Jun 29, 9:00 PM)27% (Jun 28, 4:00 PM)29.39 "Hg (Jun 22, 5:30 PM)
Average88 °F62%29.58 "Hg
* Reported Jun 21 12:00 Noon — Jul 6 11:00 AM, Jaipur, Weather by CustomWeather, © 2015

Note: Actual official high and low records may vary slightly from our data, if they occured in-between our weather recording intervals... More about our weather records

Advertising

Jaipur weather history for previous 24 hours

 ConditionsComfort  
Time TempWeatherWind HumidityBarometerVisibility
11:00 AM
Mon, Jul 6
90 °FScattered clouds.14 mph55%29.56 "Hg1 mi
8:30 AM88 °FRain. Cloudy.18 mph59%29.56 "Hg1 mi
8:00 AM86 °FHaze.16 mph62%29.56 "Hg1 mi
7:00 AM86 °FHaze.15 mph62%29.56 "Hg1 mi
6:00 AM86 °FHaze.15 mph62%29.53 "Hg1 mi
5:00 AM88 °FHaze.15 mph59%29.50 "Hg1 mi
2:00 AM90 °FHaze.8 mph55%29.53 "Hg1 mi
1:00 AM90 °FHaze.8 mph55%29.53 "Hg1 mi
12:00 AM91 °FHaze.12 mph49%29.53 "Hg1 mi
11:30 PM
Sun, Jul 5
91 °FHaze.14 mph49%29.53 "Hg1 mi
11:00 PM91 °FHaze.13 mph49%29.53 "Hg1 mi
10:00 PM93 °FHaze.12 mph44%29.53 "Hg1 mi
9:00 PM95 °FHaze.10 mph41%29.50 "Hg1 mi
8:00 PM95 °FHaze.8 mph44%29.50 "Hg1 mi
7:00 PM97 °FHaze.10 mph39%29.47 "Hg1 mi
6:30 PM99 °FHaze.10 mph37%29.47 "Hg1 mi
6:00 PM99 °FHaze.12 mph37%29.47 "Hg1 mi
5:00 PM99 °FHaze.12 mph37%29.47 "Hg1 mi
4:00 PM99 °FHaze.10 mph37%29.50 "Hg1 mi
3:00 PM97 °FHaze.9 mph42%29.53 "Hg1 mi
2:00 PM97 °FHaze.12 mph42%29.53 "Hg1 mi
1:00 PM93 °FHaze.12 mph44%29.56 "Hg1 mi
Weather by CustomWeather, © 2015

See weather overviewHow to use our weather pages